Location: Unspecified
(17.6330°N, 0.0000°E)
Time: 21:03:19
(UTC+00:00)

N. Korean satellite - Pass Details

Date: 31 October 2020
Orbit: 453 x 503 km, 97.2° (Epoch: 03 December)

Event Time Altitude Azimuth Distance (km) Brightness Sun altitude
Rises 05:19:33 0° 9° (N) 2,459 10.1 -9.9°
Reaches altitude 10° 05:21:34 10° 8° (N) 1,588 9.1 -9.4°
Maximum altitude 05:24:58 78° 282° (WNW) 470 6.3 -8.6°
Drops below altitude 10° 05:28:24 10° 195° (SSW) 1,603 9.2 -7.8°
Sets 05:30:27 0° 194° (SSW) 2,484 10.2 -7.3°
